Location: Santa Cristina
(46.5667°N, 11.7167°E)
Time: 04:31:37
(UTC+00:00)

DELTA 2 R/B (1) - Pass Details

Date: 21 April 2021
Orbit: 790 x 803 km, 39.6° (Epoch: 10 May)

Event Time Altitude Azimuth Distance (km) Brightness Sun altitude
Exits shadow 02:23:23 31° 226° (SW) 1,366 4.2 -17.5°
Maximum altitude 02:25:15 40° 184° (S) 1,144 4.1 -17.3°
Drops below altitude 10° 02:30:25 10° 116° (ESE) 2,355 6.3 -16.6°
Sets 02:33:01 0° 109° (ESE) 3,286 7.2 -16.3°
